Location: Starlight Observatory
(38.4029°N, 85.8936°W)
Time: 20:34:35
(UTC-04:00)

Iridium 84 - Visible Passes

Search period start: 24 July 2014 00:00
Search period end: 03 August 2014 00:00
Orbit: 776 x 779 km, 86.4° (Epoch: 24 July)

Date Brightness Start Highest point End Pass type
(mag) Time Alt. Az. Time Alt. Az. Time Alt. Az.
24 Jul 6.2 21:25:45 10° NNE 21:30:33 36° E 21:35:19 10° SSE visible
24 Jul 7.7 23:06:59 10° NNW 23:11:00 23° W 23:15:01 10° SW visible
25 Jul 6.7 22:32:48 10° NNW 22:37:42 43° W 22:42:34 10° SSW visible
26 Jul 5.6 21:59:03 10° N 22:04:16 81° W 22:09:28 10° S visible
27 Jul 5.7 21:25:37 10° N 21:30:44 53° E 21:35:48 10° SSE visible
27 Jul 8.2 23:07:52 10° NW 23:10:55 16° W 23:13:57 10° WSW visible
28 Jul 7.4 22:33:14 10° NNW 22:37:41 29° W 22:42:07 10° SW visible
29 Jul 6.3 21:59:15 10° NNW 22:04:20 55° W 22:09:23 10° SSW visible
30 Jul 5.5 21:25:37 10° N 21:30:51 79° E 21:36:03 10° S visible
30 Jul 8.6 23:09:54 10° WNW 23:10:47 10° WNW 23:11:39 10° W visible
31 Jul 8.0 22:33:53 10° NW 22:37:37 20° W 22:41:21 10° SW visible
01 Aug 7.1 21:59:34 10° NNW 22:04:20 37° W 22:09:05 10° SSW visible
02 Aug 5.9 21:25:44 10° N 21:30:56 71° W 21:36:06 10° S visible
